Flag for Australia Weather past 2 weeks in Melbourne, Victoria, Australia

Now
39 °F

Clear.


Feels Like: 32 °F
Forecast: 41 / 54 °F
Wind: 10 mph from West

Location: Melbourne Airport

Current Time: Jul 31, 2015 at 5:00:46 AM

Latest Report: Jul 31, 2015 at 4:00 AM


Visibility: 10 mi

Pressure: 30.09 "Hg

Humidity: 87%

Dew point: 36 °F

Location of MelbourneLocation

Historic Weather in Melbourne — Graph

°F

Melbourne temperature yesterday

Maximum temperature yesterday: 52 °F (at 12:00 PM)
Minimum temperature yesterday: 45 °F (at 12:30 AM)
Average temperature yesterday: 48 °F

Past Weeks' High & Low Weather Summary

 TemperatureHumidityPressure
High59 °F (Jul 21, 12:30 PM)100% (Jul 17, 1:30 AM)30.57 "Hg (Jul 17, 1:30 AM)
Low30 °F (Jul 20, 6:30 AM)41% (Jul 19, 3:00 PM)29.74 "Hg (Jul 25, 11:30 PM)
Average48 °F74%30.22 "Hg
* Reported Jul 16 4:00 AM — Jul 31 4:00 AM, Melbourne, Weather by CustomWeather, © 2015

Note: Actual official high and low records may vary slightly from our data, if they occured in-between our weather recording intervals... More about our weather records

Advertising

Melbourne weather history for previous 24 hours

 ConditionsComfort  
Time TempWeatherWind HumidityBarometerVisibility
4:00 AM
Fri, Jul 31
39 °FClear.10 mph87%30.09 "Hg10 mi
3:30 AM39 °FClear.10 mph93%30.07 "Hg10 mi
3:00 AM41 °FClear.12 mph87%30.09 "Hg10 mi
2:30 AM41 °FClear.10 mph87%30.09 "Hg10 mi
2:00 AM41 °FClear.9 mph93%30.09 "Hg10 mi
1:30 AM41 °FClear.12 mph93%30.07 "Hg10 mi
1:00 AM41 °FPassing clouds.8 mph87%30.07 "HgN/A
12:30 AM41 °FPassing clouds.8 mph93%30.07 "HgN/A
12:00 AM45 °FPassing clouds.8 mph87%30.07 "HgN/A
11:30 PM
Thu, Jul 30
45 °FPassing clouds.9 mph87%30.07 "HgN/A
11:00 PM46 °FPassing clouds.9 mph87%30.07 "HgN/A
10:30 PM48 °FPartly cloudy.9 mph87%30.07 "HgN/A
10:00 PM48 °FLight rain. Partly cloudy.15 mph82%30.07 "Hg4 mi
9:30 PM48 °FLight rain. Passing clouds.14 mph82%30.04 "HgN/A
9:00 PM48 °FPassing clouds.23 mph76%30.01 "HgN/A
8:30 PM48 °FLight rain. Partly cloudy.28 mph76%30.01 "HgN/A
8:00 PM50 °FPartly cloudy.26 mph71%29.98 "HgN/A
7:30 PM50 °FPartly cloudy.29 mph67%29.98 "HgN/A
7:00 PM50 °FPassing clouds.30 mph67%29.98 "HgN/A
6:30 PM50 °FScattered showers. Passing clouds.31 mph62%29.95 "HgN/A
6:02 PM50 °FPassing clouds.32 mph62%29.92 "HgN/A
5:30 PM50 °FScattered showers. Partly cloudy.37 mph58%29.89 "HgN/A
5:00 PM52 °FPartly cloudy.39 mph54%29.86 "HgN/A
4:00 PM52 °FPartly sunny.38 mph54%29.89 "HgN/A
3:30 PM52 °FBroken clouds.35 mph54%29.89 "HgN/A
3:00 PM52 °FBroken clouds.40 mph50%29.92 "HgN/A
2:30 PM52 °FBroken clouds.38 mph54%29.92 "HgN/A
1:30 PM52 °FBroken clouds.33 mph58%29.95 "HgN/A
1:00 PM50 °FScattered showers. Partly sunny.35 mph58%29.98 "HgN/A
12:30 PM50 °FPartly sunny.25 mph58%30.01 "HgN/A
12:00 PM52 °FBroken clouds.25 mph54%30.04 "HgN/A
11:30 AM50 °FPartly sunny.22 mph62%30.07 "HgN/A
11:00 AM50 °FSprinkles. Broken clouds.18 mph62%30.09 "HgN/A
10:30 AM50 °FBroken clouds.28 mph62%30.09 "HgN/A
10:00 AM50 °FPartly sunny.23 mph62%30.12 "HgN/A
9:30 AM48 °FPartly sunny.18 mph66%30.12 "HgN/A
9:00 AM48 °FPartly sunny.18 mph66%30.12 "HgN/A
8:30 AM46 °FBroken clouds.23 mph71%30.12 "HgN/A
8:00 AM46 °FBroken clouds.33 mph66%30.12 "HgN/A
7:30 AM46 °FPartly sunny.35 mph71%30.12 "HgN/A
7:00 AM45 °FSunny.31 mph76%30.12 "Hg10 mi
6:30 AM45 °FSunny.31 mph76%30.12 "Hg10 mi
6:00 AM45 °FClear.29 mph76%30.12 "Hg10 mi
5:30 AM46 °FClear.29 mph71%30.15 "Hg10 mi
5:00 AM45 °FClear.29 mph76%30.15 "Hg10 mi
Weather by CustomWeather, © 2015

See weather overviewHow to use our weather pages